Orbital Elements at Epoch 2459200.5 (2020-Dec-17.0) TDB
Reference: JPL 21 (heliocentric ecliptic J2000)
Element | Value | Uncertainty (1-sigma) | Units |
e | .1439392983734484 | 5.9008e-08 | |
a | 2.539720976917811 | 1.3442e-08 | au |
q | 2.174155321435932 | 1.5418e-07 | au |
i | 6.13647874294216 | 5.6027e-06 | deg |
node | 149.7278495599994 | 3.8154e-05 | deg |
peri | 219.943267924785 | 4.2108e-05 | deg |
M | 254.2981240510617 | 2.1806e-05 | deg |
tp | 2459634.567859969462 (2022-Feb-24.06785997) | 9.1678e-05 | TDB |
period | 1478.350579742724 4.05 | 1.1737e-05 3.213e-08 | d yr |
n | .2435146337634274 | 1.9333e-09 | deg/d |
Q | 2.90528663239969 | 1.5377e-08 | au |
|
| | Orbit Determination Parameters
Additional Information
|